Location: Heisede
(52.2582°N, 9.8523°E)
Time: 14:34:23
(UTC+00:00)

IRS-1D - Visible Passes

Search period start: 11 April 2026 00:00
Search period end: 21 April 2026 00:00
Orbit: 735 x 811 km, 98.8° (Epoch: 11 April)

Date Brightness Start Highest point End Pass type
(mag) Time Alt. Az. Time Alt. Az. Time Alt. Az.
12 Apr 6.3 03:29:29 10° NE 03:32:52 18° E 03:36:15 10° SE visible
15 Apr 6.3 03:25:38 10° NE 03:28:49 17° E 03:32:01 10° SE visible
18 Apr 6.4 03:21:48 10° NE 03:24:46 15° E 03:27:45 10° ESE visible
